This demonstration page uses our WeatherBlox Daily Observations layout. Learn more.

Left ArrowRight Arrow

36.17497, -115.13722

Hourly Observations for June 21, 2021

Temp ( °F °C ) Dew Point ( °F °C ) Humidity (%) Winds ( mph kmh ) Pressure ( in mb ) Visibility ( mi km ) Precip ( " mm )
12:53 am 00:53 Clear 98 36.7 30 -1.1 9 9 SSW 14 22 29.62 1003 10 16 N/A
1:53 am 01:53 Clear 96 35.6 30 -1.1 10 10 S 12 19 29.64 1004 10 16 N/A
2:53 am 02:53 Clear 93 33.9 31 -0.6 11 11 S 13 20 29.65 1004 10 16 N/A
3:53 am 03:53 Clear 91 32.8 32 undefined 12 12 WSW 6 9 29.66 1005 10 16 N/A
4:53 am 04:53 Clear 90 32.2 31 -0.6 12 12 W 3 6 29.69 1005 10 16 N/A
5:53 am 05:53 Sunny 86 30 35 1.7 16 16 N N/A 29.71 1006 10 16 N/A
6:53 am 06:53 Sunny 87 30.6 35 1.7 16 16 ESE 3 6 29.74 1007 10 16 N/A
7:53 am 07:53 Sunny 93 33.9 33 0.6 12 12 ESE 10 17 29.75 1008 10 16 N/A
8:53 am 08:53 Sunny 95 35 34 1.1 12 12 SSE 8 13 29.77 1008 10 16 N/A
9:53 am 09:53 Sunny 99 37.2 31 -0.6 9 9 ESE 12 19 29.77 1008 10 16 N/A
10:53 am 10:53 Sunny 101 38.3 31 -0.6 8 8 S 6 9 29.77 1008 10 16 N/A
11:53 am 11:53 Sunny 104 40 30 -1.1 7 7 ESE 15 24 29.75 1008 10 16 N/A
12:53 pm 12:53 Sunny 106 41.1 28 -2.2 6 6 S 10 17 29.73 1007 10 16 N/A
1:53 pm 13:53 Sunny 106 41.1 30 -1.1 7 7 SSW 16 26 29.72 1006 10 16 N/A
2:53 pm 14:53 Sunny 108 42.2 24 -4.4 5 5 SW 17 28 29.70 1006 10 16 N/A
3:53 pm 15:53 Sunny 110 43.3 25 -3.9 5 5 SSW 20 31 29.68 1005 10 16 N/A
4:53 pm 16:53 Sunny 109 42.8 16 -8.9 3 3 SW 22 35 29.66 1005 10 16 N/A
5:53 pm 17:53 Sunny 108 42.2 17 -8.3 4 4 SW 21 33 29.65 1004 10 16 N/A
6:53 pm 18:53 Sunny 106 41.1 23 -5 5 5 WSW 23 37 29.66 1004 10 16 N/A
7:53 pm 19:53 Sunny 102 38.9 27 -2.8 7 7 SW 20 31 29.67 1005 10 16 N/A
8:53 pm 20:53 Clear 100 37.8 28 -2.2 8 8 SW 21 33 29.69 1006 10 16 N/A
9:53 pm 21:53 Clear 98 36.7 29 -1.7 9 9 SSW 15 24 29.71 1006 10 16 N/A
10:53 pm 22:53 Clear 96 35.6 30 -1.1 10 10 SSW 17 28 29.72 1007 10 16 N/A
11:53 pm 23:53 Clear 95 35 29 -1.7 9 9 SW 18 30 29.72 1006 10 16 N/A

Powered by AerisWeather